CZ-3B DEB, 42471

Orbit data source: Space-Track

CZ-3B DEB, 42471 is space debris in HEO originally from a launch on Mon, 19 Dec 2011 UTC launched from the Xichang Space Center, China (XSC). Debris objects in space refer to the collection of defunct objects orbiting the Earth. Examples of debris include non-operational satellites, rocket bodies, and fragments generated from explosions, collisions, or faulty payload assembly.

Loading next visibility...
Identifier
42471, 2011-077AL
Orbit
HEO
Country
Flag of CNCN / PRC
Related business
Manufacturer
CALT
Mission
Spacecraft
Bus & Motor
Unknown
Mass
Unknown
Launch date (UTC)
2011-12-19 (14 years ago)
Launch vehicle
Unknown
Launch site
Xichang Space Center, China (XSC)
Object type
Payload
Rocket body
Debris
Shape & HBR
Unknown shape, 0.2 m
Radar Cross Section
Medium (>0.1 m² and <1 m²)

Expand to show TLE details & history
Last TLE update: 5 days ago

TLE from 5 days ago
0 CZ-3B DEB
1 42471U 11077AL  26031.11735442  .00000075  00000-0  29501-2 0  9994
2 42471  26.4968 346.9813 7455319  61.3850 352.9250  1.89252076 32096
Epoch: 2026-01-31T02:48Z
TLE epoch observation values (Epoch: 2026-01-31T02:48:59.421Z)
Latitude
0.00009°
Longitude
174.3895°
Altitude
2,699.75 km
Speed
8.566 km/s
True Right ascension
23h 07m 55s
True Declination
0° 00' 00"
Sunlit
Object was in daylight at epoch
Visualization orbit readout
Latitude
Unknown
Longitude
Unknown
Altitude
Unknown
Speed
Unknown
Apparent Right ascension
Unknown
Apparent Declination
Unknown
Sunlit
N/A
Visualization observer readout
Local Sidereal Time
14:07:23
Azimuth
Unknown
Elevation
Unknown
Doppler factor
Unknown
Orbital elements
Apogee altitude
41,819.852 km
Perigee altitude
648.289 km
Semi-major axis
27,612.208 km
Eccentricity
0.74553
Inclination
26.4968°
RAAN
346.9813°
Arg. of periapsis
61.385°
True anomaly
298.91573°
Mean anomaly
352.925°
Eccentric anomaly
334.60821°
Mean motion
0.47303 °/min
Orbital period
761.05 mins
BSTAR
0.0029501
Loading maneuver chart data...
Computing Atmospheric mass density...
Loading historical data...
Loading historical data...
Loading historical data...
Loading historical data...
Loading historical data...
Loading historical data...
Loading historical data...

Documentation

Showing up to 5 results
|